status,avgMeasuredTime,avgSpeed,extID,medianMeasuredTime,TIMESTAMP,vehicleCount,_id,REPORT_ID
OK,102,33,719,102,2014-08-01T07:55:00,1,20746443,184866
OK,76,44,719,76,2014-08-01T08:00:00,2,20746774,184866
OK,63,53,719,63,2014-08-01T08:05:00,4,20747223,184866
OK,97,34,719,97,2014-08-01T08:10:00,4,20747596,184866
OK,87,38,719,87,2014-08-01T08:15:00,5,20748045,184866
OK,72,47,719,72,2014-08-01T08:20:00,8,20748494,184866
OK,54,62,719,54,2014-08-01T08:25:00,3,20748943,184866
OK,90,37,719,90,2014-08-01T08:30:00,3,20749392,184866
OK,120,28,719,120,2014-08-01T08:35:00,4,20749841,184866
OK,120,28,719,120,2014-08-01T08:40:00,3,20750290,184866
OK,123,27,719,123,2014-08-01T08:45:00,6,20750739,184866
OK,116,29,719,116,2014-08-01T08:50:00,4,20751188,184866
OK,93,36,719,93,2014-08-01T08:55:00,5,20751637,184866
OK,100,33,719,100,2014-08-01T09:00:00,4,20752086,184866
OK,104,32,719,104,2014-08-01T09:05:00,6,20752535,184866
OK,92,36,719,92,2014-08-01T09:10:00,6,20752984,184866
OK,85,39,719,85,2014-08-01T09:15:00,5,20753433,184866
OK,116,29,719,116,2014-08-01T09:20:00,1,20753882,184866
OK,107,31,719,107,2014-08-01T09:25:00,2,20754331,184866
OK,96,35,719,96,2014-08-01T09:30:00,3,20754780,184866
OK,98,34,719,98,2014-08-01T09:35:00,4,20755229,184866
OK,101,33,719,101,2014-08-01T09:40:00,3,20755678,184866
OK,109,31,719,109,2014-08-01T09:45:00,2,20756127,184866
OK,103,32,719,103,2014-08-01T09:50:00,2,20756576,184866
OK,102,33,719,102,2014-08-01T09:55:00,2,20757025,184866
OK,98,34,719,98,2014-08-01T10:00:00,4,20757474,184866
OK,87,38,719,87,2014-08-01T10:05:00,2,20757923,184866
OK,60,56,719,60,2014-08-01T10:10:00,4,20758372,184866
OK,59,57,719,59,2014-08-01T10:15:00,3,20758821,184866
OK,61,55,719,61,2014-08-01T10:20:00,0,20759270,184866
OK,61,55,719,61,2014-08-01T10:25:00,0,20759719,184866
OK,133,25,719,133,2014-08-01T10:30:00,1,20760168,184866
OK,114,29,719,114,2014-08-01T10:35:00,5,20760617,184866
OK,135,25,719,135,2014-08-01T10:40:00,3,20761066,184866
OK,111,30,719,111,2014-08-01T10:45:00,2,20761515,184866
OK,87,38,719,87,2014-08-01T10:50:00,0,20761964,184866
OK,93,36,719,93,2014-08-01T10:55:00,1,20762413,184866
OK,108,31,719,108,2014-08-01T11:00:00,5,20762862,184866
OK,112,30,719,112,2014-08-01T11:05:00,4,20763311,184866
OK,122,27,719,122,2014-08-01T11:10:00,2,20763760,184866
OK,119,28,719,119,2014-08-01T11:15:00,3,20764209,184866
OK,114,29,719,114,2014-08-01T11:20:00,5,20764657,184866
OK,113,30,719,113,2014-08-01T11:25:00,5,20765106,184866
OK,112,30,719,112,2014-08-01T11:30:00,4,20765555,184866
OK,91,37,719,91,2014-08-01T11:35:00,3,20766004,184866
OK,82,41,719,82,2014-08-01T11:40:00,1,20766453,184866
OK,72,47,719,72,2014-08-01T11:45:00,2,20766902,184866
OK,72,47,719,72,2014-08-01T11:50:00,2,20767351,184866
OK,105,32,719,105,2014-08-01T11:55:00,1,20767800,184866
OK,105,32,719,105,2014-08-01T12:00:00,5,20768249,184866
OK,129,26,719,129,2014-08-01T12:05:00,2,20768698,184866
OK,92,36,719,92,2014-08-01T12:10:00,4,20769147,184866
OK,87,38,719,87,2014-08-01T12:15:00,7,20769596,184866
OK,83,40,719,83,2014-08-01T12:20:00,3,20770045,184866
OK,107,31,719,107,2014-08-01T12:25:00,2,20770494,184866
OK,92,36,719,92,2014-08-01T12:30:00,5,20770943,184866
OK,81,41,719,81,2014-08-01T12:35:00,4,20771392,184866
OK,81,41,719,81,2014-08-01T12:40:00,3,20771841,184866
OK,91,37,719,91,2014-08-01T12:45:00,4,20772290,184866
OK,99,34,719,99,2014-08-01T12:50:00,5,20772739,184866
OK,77,44,719,77,2014-08-01T12:55:00,7,20773188,184866
OK,77,44,719,77,2014-08-01T13:00:00,7,20773637,184866
OK,92,36,719,92,2014-08-01T13:05:00,5,20774086,184866
OK,91,37,719,91,2014-08-01T13:10:00,4,20774535,184866
OK,94,36,719,94,2014-08-01T13:15:00,3,20774984,184866
OK,90,37,719,90,2014-08-01T13:20:00,4,20775433,184866
OK,77,44,719,77,2014-08-01T13:25:00,3,20775882,184866
OK,80,42,719,80,2014-08-01T13:30:00,5,20776331,184866
OK,88,38,719,88,2014-08-01T13:35:00,5,20776780,184866
OK,92,36,719,92,2014-08-01T13:40:00,3,20777229,184866
OK,107,31,719,107,2014-08-01T13:45:00,2,20777678,184866
OK,82,41,719,82,2014-08-01T13:50:00,4,20778127,184866
OK,92,36,719,92,2014-08-01T13:55:00,6,20778576,184866
OK,92,36,719,92,2014-08-01T14:00:00,4,20779025,184866
OK,121,28,719,121,2014-08-01T14:05:00,2,20779474,184866
OK,117,28,719,117,2014-08-01T14:10:00,2,20779923,184866
OK,101,33,719,101,2014-08-01T14:15:00,1,20780372,184866
OK,101,33,719,101,2014-08-01T14:20:00,0,20780821,184866
OK,101,33,719,101,2014-08-01T14:25:00,0,20781270,184866
OK,82,41,719,82,2014-08-01T14:30:00,1,20781719,184866
OK,63,53,719,63,2014-08-01T14:35:00,1,20782168,184866
OK,63,53,719,63,2014-08-01T14:40:00,1,20782617,184866
OK,84,40,719,84,2014-08-01T14:45:00,1,20783066,184866
OK,84,40,719,84,2014-08-01T14:50:00,1,20783515,184866
OK,70,48,719,70,2014-08-01T14:55:00,1,20783964,184866
OK,86,39,719,86,2014-08-01T15:00:00,5,20784413,184866
OK,95,35,719,95,2014-08-01T15:05:00,4,20784862,184866
OK,81,41,719,81,2014-08-01T15:10:00,2,20785311,184866
OK,96,35,719,96,2014-08-01T15:15:00,2,20785760,184866
OK,99,34,719,99,2014-08-01T15:20:00,1,20786209,184866
OK,122,27,719,122,2014-08-01T15:25:00,2,20786658,184866
OK,101,33,719,101,2014-08-01T15:30:00,3,20787107,184866
OK,104,32,719,104,2014-08-01T15:35:00,2,20787556,184866
OK,100,33,719,100,2014-08-01T15:40:00,4,20788005,184866
OK,95,35,719,95,2014-08-01T15:45:00,2,20788454,184866
OK,96,35,719,96,2014-08-01T15:50:00,2,20788903,184866
OK,85,39,719,85,2014-08-01T15:55:00,4,20789352,184866
OK,83,40,719,83,2014-08-01T16:00:00,5,20789801,184866
OK,78,43,719,78,2014-08-01T16:05:00,4,20790250,184866
OK,59,57,719,59,2014-08-01T16:10:00,0,20790699,184866
OK,59,57,719,59,2014-08-01T16:15:00,0,20791148,184866
OK,122,27,719,122,2014-08-01T16:20:00,2,20791597,184866
OK,104,32,719,104,2014-08-01T16:25:00,3,20792046,184866
OK,56,60,719,56,2014-08-01T16:30:00,1,20792495,184866
OK,116,29,719,116,2014-08-01T16:35:00,2,20792944,184866
OK,116,29,719,116,2014-08-01T16:40:00,2,20793393,184866
OK,90,37,719,90,2014-08-01T16:45:00,1,20793842,184866
OK,90,37,719,90,2014-08-01T16:50:00,1,20794291,184866
OK,90,37,719,90,2014-08-01T16:55:00,0,20794740,184866
OK,90,37,719,90,2014-08-01T17:00:00,0,20795189,184866
OK,90,37,719,90,2014-08-01T17:05:00,0,20795638,184866
OK,90,37,719,90,2014-08-01T17:10:00,0,20796087,184866
OK,90,37,719,90,2014-08-01T17:15:00,0,20796536,184866
OK,51,66,719,51,2014-08-01T17:20:00,1,20796985,184866
OK,51,66,719,51,2014-08-01T17:25:00,1,20797434,184866
OK,108,31,719,108,2014-08-01T17:30:00,1,20797883,184866
OK,108,31,719,108,2014-08-01T17:35:00,0,20798332,184866
OK,133,25,719,133,2014-08-01T17:40:00,1,20798781,184866
OK,79,42,719,79,2014-08-01T17:45:00,1,20799230,184866
OK,79,42,719,79,2014-08-01T17:50:00,1,20799679,184866
OK,56,60,719,56,2014-08-01T17:55:00,1,20800128,184866
OK,85,39,719,85,2014-08-01T18:00:00,2,20800577,184866
OK,113,30,719,113,2014-08-01T18:05:00,1,20801026,184866
OK,113,30,719,113,2014-08-01T18:10:00,0,20801475,184866
OK,66,51,719,66,2014-08-01T18:15:00,1,20801924,184866
OK,66,51,719,66,2014-08-01T18:20:00,0,20802373,184866
OK,63,53,719,63,2014-08-01T18:25:00,1,20802822,184866
OK,63,53,719,63,2014-08-01T18:30:00,1,20803271,184866
OK,63,53,719,63,2014-08-01T18:35:00,0,20803720,184866
OK,63,53,719,63,2014-08-01T18:40:00,0,20804169,184866
OK,63,53,719,63,2014-08-01T18:45:00,0,20804618,184866
OK,63,53,719,63,2014-08-01T18:50:00,0,20805067,184866
OK,63,53,719,63,2014-08-01T18:55:00,0,20805516,184866
OK,63,53,719,63,2014-08-01T19:00:00,0,20805965,184866
OK,63,53,719,63,2014-08-01T19:05:00,0,20806414,184866
OK,54,62,719,54,2014-08-01T19:10:00,1,20806863,184866
OK,54,62,719,54,2014-08-01T19:15:00,1,20807312,184866
OK,122,27,719,122,2014-08-01T19:20:00,1,20807761,184866
OK,122,27,719,122,2014-08-01T19:25:00,1,20808210,184866
OK,71,47,719,71,2014-08-01T19:30:00,1,20808659,184866
OK,70,48,719,70,2014-08-01T19:35:00,2,20809108,184866
OK,69,49,719,69,2014-08-01T19:40:00,1,20809557,184866
OK,112,30,719,112,2014-08-01T19:45:00,1,20810006,184866
OK,68,49,719,68,2014-08-01T19:50:00,1,20810455,184866
OK,68,49,719,68,2014-08-01T19:55:00,1,20810904,184866
OK,98,34,719,98,2014-08-01T20:05:00,1,20811523,184866
OK,98,34,719,98,2014-08-01T20:10:00,1,20811726,184866
OK,98,34,719,98,2014-08-01T20:15:00,0,20811932,184866
OK,98,34,719,98,2014-08-01T20:20:00,0,20812141,184866
OK,98,34,719,98,2014-08-01T20:25:00,0,20812359,184866
OK,79,42,719,79,2014-08-01T20:30:00,1,20812574,184866
OK,63,53,719,63,2014-08-01T20:40:00,2,20812984,184866
OK,63,53,719,63,2014-08-01T20:45:00,0,20813192,184866
OK,63,53,719,63,2014-08-01T20:50:00,0,20813403,184866
OK,56,60,719,56,2014-08-01T20:55:00,1,20813633,184866
OK,56,60,719,56,2014-08-01T21:00:00,0,20813871,184866
OK,48,70,719,48,2014-08-01T21:05:00,1,20814047,184866
OK,48,70,719,48,2014-08-01T21:15:00,0,20814483,184866
OK,48,70,719,48,2014-08-01T21:20:00,0,20814690,184866
OK,48,70,719,48,2014-08-01T21:25:00,0,20814919,184866
OK,48,70,719,48,2014-08-01T21:30:00,0,20815195,184866
OK,48,70,719,48,2014-08-01T21:35:00,0,20815428,184866
OK,48,70,719,48,2014-08-01T21:40:00,0,20815652,184866
OK,48,70,719,48,2014-08-01T21:45:00,0,20815889,184866
OK,48,70,719,48,2014-08-01T21:50:00,0,20816130,184866
OK,48,70,719,48,2014-08-01T21:55:00,0,20816365,184866
OK,48,70,719,48,2014-08-01T22:00:00,0,20816633,184866
OK,74,45,719,74,2014-08-01T22:05:00,1,20817082,184866
OK,81,41,719,81,2014-08-01T22:10:00,2,20817404,184866
OK,88,38,719,88,2014-08-01T22:15:00,1,20817833,184866
OK,88,38,719,88,2014-08-01T22:20:00,0,20818123,184866
OK,88,38,719,88,2014-08-01T22:25:00,0,20818439,184866
OK,88,38,719,88,2014-08-01T22:30:00,0,20818773,184866
OK,86,39,719,86,2014-08-01T22:40:00,3,20819257,184866
OK,82,41,719,82,2014-08-01T22:45:00,2,20819545,184866
OK,92,36,719,92,2014-08-01T22:50:00,2,20819780,184866
OK,83,40,719,83,2014-08-01T22:55:00,1,20820033,184866
OK,83,40,719,83,2014-08-01T23:00:00,0,20820209,184866
OK,83,40,719,83,2014-08-01T23:05:00,0,20820462,184866
OK,83,40,719,83,2014-08-01T23:10:00,0,20820692,184866
OK,83,40,719,83,2014-08-01T23:15:00,0,20820880,184866
OK,83,40,719,83,2014-08-01T23:25:00,0,20821308,184866
OK,83,40,719,83,2014-08-01T23:30:00,0,20821534,184866
OK,83,40,719,83,2014-08-01T23:35:00,0,20821779,184866
OK,83,40,719,83,2014-08-01T23:40:00,0,20821958,184866
OK,83,40,719,83,2014-08-01T23:45:00,0,20822181,184866
OK,83,40,719,83,2014-08-01T23:50:00,0,20822448,184866
OK,83,40,719,83,2014-08-01T23:55:00,0,20822774,184866
OK,57,59,719,57,2014-08-02T00:00:00,1,20823072,184866
OK,57,59,719,57,2014-08-02T00:05:00,0,20823521,184866
OK,57,59,719,57,2014-08-02T00:10:00,0,20823970,184866
OK,66,51,719,66,2014-08-02T00:15:00,1,20824419,184866
OK,66,51,719,66,2014-08-02T00:20:00,1,20824868,184866
OK,66,51,719,66,2014-08-02T00:25:00,0,20825317,184866
OK,66,51,719,66,2014-08-02T00:30:00,0,20825766,184866
OK,66,51,719,66,2014-08-02T00:35:00,0,20826215,184866
OK,66,51,719,66,2014-08-02T00:40:00,0,20826664,184866
OK,66,51,719,66,2014-08-02T00:45:00,0,20827113,184866
OK,97,34,719,97,2014-08-02T00:50:00,1,20827562,184866
OK,97,34,719,97,2014-08-02T00:55:00,1,20828011,184866
OK,97,34,719,97,2014-08-02T01:00:00,0,20828460,184866
OK,97,34,719,97,2014-08-02T01:05:00,0,20828909,184866
OK,97,34,719,97,2014-08-02T01:10:00,0,20829358,184866
OK,97,34,719,97,2014-08-02T01:15:00,0,20829807,184866
OK,97,34,719,97,2014-08-02T01:20:00,0,20830256,184866
OK,97,34,719,97,2014-08-02T01:25:00,0,20830705,184866
OK,97,34,719,97,2014-08-02T01:30:00,0,20831154,184866
OK,97,34,719,97,2014-08-02T01:35:00,0,20831603,184866
OK,97,34,719,97,2014-08-02T01:40:00,0,20832052,184866
OK,97,34,719,97,2014-08-02T01:45:00,0,20832501,184866
OK,97,34,719,97,2014-08-02T01:50:00,0,20832950,184866
OK,97,34,719,97,2014-08-02T01:55:00,0,20833399,184866
OK,97,34,719,97,2014-08-02T02:00:00,0,20833848,184866
OK,97,34,719,97,2014-08-02T02:05:00,0,20834297,184866
OK,97,34,719,97,2014-08-02T02:10:00,0,20834746,184866
OK,97,34,719,97,2014-08-02T02:15:00,0,20835195,184866
OK,97,34,719,97,2014-08-02T02:20:00,0,20835644,184866
OK,97,34,719,97,2014-08-02T02:25:00,0,20836093,184866
OK,97,34,719,97,2014-08-02T02:30:00,0,20836542,184866
OK,97,34,719,97,2014-08-02T02:35:00,0,20836991,184866
OK,97,34,719,97,2014-08-02T02:40:00,0,20837440,184866
OK,97,34,719,97,2014-08-02T02:45:00,0,20837889,184866
OK,97,34,719,97,2014-08-02T02:50:00,0,20838338,184866
OK,97,34,719,97,2014-08-02T02:55:00,0,20838787,184866
OK,97,34,719,97,2014-08-02T03:00:00,0,20839236,184866
OK,97,34,719,97,2014-08-02T03:05:00,0,20839685,184866
OK,97,34,719,97,2014-08-02T03:10:00,0,20840134,184866
OK,97,34,719,97,2014-08-02T03:15:00,0,20840583,184866
OK,97,34,719,97,2014-08-02T03:20:00,0,20841032,184866
OK,97,34,719,97,2014-08-02T03:25:00,0,20841481,184866
OK,97,34,719,97,2014-08-02T03:30:00,0,20841930,184866
OK,97,34,719,97,2014-08-02T03:35:00,0,20842379,184866
OK,97,34,719,97,2014-08-02T03:40:00,0,20842828,184866
OK,45,75,719,45,2014-08-02T03:45:00,0,20843277,184866
OK,45,75,719,45,2014-08-02T03:50:00,0,20843726,184866
OK,45,75,719,45,2014-08-02T03:55:00,0,20844175,184866
OK,91,37,719,91,2014-08-02T04:00:00,1,20844624,184866
OK,91,37,719,91,2014-08-02T04:05:00,0,20844755,184866
OK,91,37,719,91,2014-08-02T04:10:00,0,20845085,184866
OK,91,37,719,91,2014-08-02T04:15:00,0,20845265,184866
OK,103,32,719,103,2014-08-02T04:20:00,1,20845621,184866
OK,103,32,719,103,2014-08-02T04:30:00,0,20846177,184866
OK,103,32,719,103,2014-08-02T04:35:00,0,20846544,184866
OK,103,32,719,103,2014-08-02T04:40:00,0,20846927,184866
OK,103,32,719,103,2014-08-02T04:45:00,0,20847186,184866
OK,103,32,719,103,2014-08-02T04:50:00,0,20847552,184866
OK,103,32,719,103,2014-08-02T04:55:00,0,20847909,184866
OK,191,17,719,191,2014-08-02T05:00:00,1,20848269,184866
OK,191,17,719,191,2014-08-02T05:05:00,1,20848433,184866
OK,191,17,719,191,2014-08-02T05:10:00,0,20848787,184866
OK,191,17,719,191,2014-08-02T05:15:00,0,20848979,184866
OK,191,17,719,191,2014-08-02T05:20:00,0,20849323,184866
OK,77,44,719,77,2014-08-02T05:25:00,1,20849848,184866
OK,77,44,719,77,2014-08-02T05:35:00,0,20850120,184866
OK,79,42,719,79,2014-08-02T05:40:00,1,20850413,184866
OK,86,39,719,86,2014-08-02T05:45:00,2,20850714,184866
OK,93,36,719,93,2014-08-02T05:50:00,1,20851072,184866
OK,112,30,719,112,2014-08-02T05:55:00,1,20851326,184866
OK,111,30,719,111,2014-08-02T06:00:00,1,20851629,184866
OK,119,28,719,119,2014-08-02T06:05:00,1,20852078,184866
OK,117,28,719,117,2014-08-02T06:10:00,1,20852527,184866
OK,136,24,719,136,2014-08-02T06:15:00,1,20852976,184866
OK,136,24,719,136,2014-08-02T06:20:00,0,20853425,184866
OK,105,32,719,105,2014-08-02T06:25:00,3,20853874,184866
OK,105,32,719,105,2014-08-02T06:30:00,0,20854323,184866
OK,105,32,719,105,2014-08-02T06:35:00,0,20854772,184866
OK,99,34,719,99,2014-08-02T06:40:00,1,20855221,184866
OK,60,56,719,60,2014-08-02T06:45:00,2,20855670,184866
OK,81,41,719,81,2014-08-02T06:50:00,4,20856119,184866
OK,101,33,719,101,2014-08-02T06:55:00,3,20856568,184866
OK,101,33,719,101,2014-08-02T07:00:00,0,20857017,184866
OK,101,33,719,101,2014-08-02T07:05:00,0,20857466,184866
OK,101,33,719,101,2014-08-02T07:10:00,0,20857915,184866
OK,101,33,719,101,2014-08-02T07:15:00,0,20858364,184866
OK,101,33,719,101,2014-08-02T07:20:00,0,20858813,184866
OK,109,31,719,109,2014-08-02T07:25:00,1,20859262,184866
OK,95,35,719,95,2014-08-02T07:30:00,1,20859711,184866
OK,95,35,719,95,2014-08-02T07:35:00,1,20860160,184866
OK,62,54,719,62,2014-08-02T07:40:00,1,20860609,184866
OK,62,54,719,62,2014-08-02T07:45:00,0,20861058,184866
OK,102,33,719,102,2014-08-02T07:50:00,2,20861507,184866
OK,121,28,719,121,2014-08-02T07:55:00,1,20861956,184866
OK,83,40,719,83,2014-08-02T08:00:00,2,20862405,184866
OK,83,40,719,83,2014-08-02T08:05:00,2,20862854,184866
OK,82,41,719,82,2014-08-02T08:10:00,2,20863303,184866
OK,109,31,719,109,2014-08-02T08:15:00,3,20863752,184866
OK,109,31,719,109,2014-08-02T08:20:00,3,20864201,184866
OK,84,40,719,84,2014-08-02T08:25:00,4,20864650,184866
OK,122,27,719,122,2014-08-02T08:30:00,5,20865099,184866
OK,116,29,719,116,2014-08-02T08:35:00,5,20865548,184866
OK,103,32,719,103,2014-08-02T08:40:00,6,20865997,184866
OK,109,31,719,109,2014-08-02T08:45:00,5,20866446,184866
OK,109,31,719,109,2014-08-02T08:50:00,1,20866895,184866
OK,109,31,719,109,2014-08-02T08:55:00,0,20867344,184866
OK,131,25,719,131,2014-08-02T09:00:00,1,20867793,184866
OK,74,45,719,74,2014-08-02T09:05:00,3,20868242,184866
OK,74,45,719,74,2014-08-02T09:10:00,3,20868691,184866
OK,93,36,719,93,2014-08-02T09:15:00,2,20869140,184866
OK,124,27,719,124,2014-08-02T09:20:00,3,20869589,184866
OK,124,27,719,124,2014-08-02T09:25:00,4,20870038,184866
OK,110,30,719,110,2014-08-02T09:30:00,2,20870487,184866
OK,120,28,719,120,2014-08-02T09:35:00,2,20870936,184866
OK,128,26,719,128,2014-08-02T09:40:00,2,20871385,184866
OK,109,31,719,109,2014-08-02T09:45:00,1,20871834,184866
OK,82,41,719,82,2014-08-02T09:50:00,2,20872283,184866
OK,79,42,719,79,2014-08-02T09:55:00,4,20872732,184866
OK,102,33,719,102,2014-08-02T10:00:00,4,20873181,184866
OK,109,31,719,109,2014-08-02T10:05:00,2,20873630,184866
OK,101,33,719,101,2014-08-02T10:10:00,3,20874079,184866
OK,71,47,719,71,2014-08-02T10:15:00,3,20874528,184866
OK,100,33,719,100,2014-08-02T10:20:00,2,20874977,184866
OK,97,34,719,97,2014-08-02T10:25:00,1,20875426,184866
OK,98,34,719,98,2014-08-02T10:30:00,2,20875875,184866
OK,95,35,719,95,2014-08-02T10:35:00,3,20876324,184866
OK,89,38,719,89,2014-08-02T10:40:00,2,20876773,184866
OK,84,40,719,84,2014-08-02T10:45:00,0,20877222,184866
OK,109,31,719,109,2014-08-02T10:50:00,1,20877671,184866
OK,109,31,719,109,2014-08-02T10:55:00,1,20878120,184866
OK,51,66,719,51,2014-08-02T11:00:00,2,20878569,184866
OK,115,29,719,115,2014-08-02T11:05:00,3,20879018,184866
OK,115,29,719,115,2014-08-02T11:10:00,5,20879467,184866
OK,115,29,719,115,2014-08-02T11:15:00,5,20879916,184866
OK,114,29,719,114,2014-08-02T11:20:00,5,20880365,184866
OK,105,32,719,105,2014-08-02T11:25:00,4,20880814,184866
OK,117,28,719,117,2014-08-02T11:30:00,1,20881263,184866
OK,117,28,719,117,2014-08-02T11:35:00,0,20881712,184866
OK,117,28,719,117,2014-08-02T11:40:00,0,20882161,184866
OK,95,35,719,95,2014-08-02T11:45:00,2,20882610,184866
OK,91,37,719,91,2014-08-02T11:50:00,3,20883059,184866
OK,84,40,719,84,2014-08-02T11:55:00,2,20883508,184866
OK,101,33,719,101,2014-08-02T12:00:00,3,20883957,184866
OK,101,33,719,101,2014-08-02T12:05:00,3,20884406,184866
OK,91,37,719,91,2014-08-02T12:10:00,5,20884855,184866
OK,87,38,719,87,2014-08-02T12:15:00,5,20885304,184866
OK,85,39,719,85,2014-08-02T12:20:00,3,20885753,184866
OK,104,32,719,104,2014-08-02T12:25:00,2,20886202,184866
OK,104,32,719,104,2014-08-02T12:30:00,2,20886651,184866
OK,103,32,719,103,2014-08-02T12:35:00,1,20887100,184866
OK,103,32,719,103,2014-08-02T12:40:00,0,20887549,184866
OK,74,45,719,74,2014-08-02T12:45:00,1,20887998,184866
OK,71,47,719,71,2014-08-02T12:50:00,2,20888447,184866
OK,68,49,719,68,2014-08-02T12:55:00,0,20888896,184866
OK,68,49,719,68,2014-08-02T13:00:00,0,20889345,184866
OK,101,33,719,101,2014-08-02T13:05:00,2,20889794,184866
OK,101,33,719,101,2014-08-02T13:10:00,2,20890243,184866
OK,100,33,719,100,2014-08-02T13:15:00,1,20890692,184866
OK,86,39,719,86,2014-08-02T13:20:00,2,20891141,184866
OK,86,39,719,86,2014-08-02T13:25:00,2,20891590,184866
OK,94,36,719,94,2014-08-02T13:30:00,2,20892039,184866
OK,88,38,719,88,2014-08-02T13:35:00,1,20892488,184866
OK,92,36,719,92,2014-08-02T13:40:00,2,20892937,184866
OK,87,38,719,87,2014-08-02T13:45:00,2,20893386,184866
OK,120,28,719,120,2014-08-02T13:50:00,3,20893835,184866
OK,108,31,719,108,2014-08-02T13:55:00,3,20894284,184866
OK,104,32,719,104,2014-08-02T14:00:00,1,20894733,184866
OK,104,32,719,104,2014-08-02T14:05:00,0,20895182,184866
OK,131,25,719,131,2014-08-02T14:10:00,2,20895631,184866
OK,130,26,719,130,2014-08-02T14:15:00,3,20896080,184866
OK,104,32,719,104,2014-08-02T14:20:00,3,20896529,184866
OK,88,38,719,88,2014-08-02T14:25:00,2,20896978,184866
OK,54,62,719,54,2014-08-02T14:30:00,1,20897427,184866
OK,62,54,719,62,2014-08-02T14:35:00,2,20897876,184866
OK,71,47,719,71,2014-08-02T14:40:00,0,20898325,184866
OK,90,37,719,90,2014-08-02T14:45:00,2,20898774,184866
OK,101,33,719,101,2014-08-02T14:50:00,5,20899223,184866
OK,92,36,719,92,2014-08-02T14:55:00,2,20899672,184866
OK,119,28,719,119,2014-08-02T15:00:00,1,20900121,184866
OK,107,31,719,107,2014-08-02T15:05:00,3,20900570,184866
OK,107,31,719,107,2014-08-02T15:10:00,3,20901019,184866
OK,109,31,719,109,2014-08-02T15:15:00,2,20901468,184866
OK,113,30,719,113,2014-08-02T15:20:00,2,20901917,184866
OK,113,30,719,113,2014-08-02T15:25:00,0,20902366,184866
OK,113,30,719,113,2014-08-02T15:30:00,0,20902815,184866
OK,126,26,719,126,2014-08-02T15:35:00,2,20903264,184866
OK,91,37,719,91,2014-08-02T15:40:00,3,20903713,184866
OK,99,34,719,99,2014-08-02T15:45:00,4,20904162,184866
OK,91,37,719,91,2014-08-02T15:50:00,4,20904611,184866
OK,107,31,719,107,2014-08-02T15:55:00,6,20905060,184866
OK,107,31,719,107,2014-08-02T16:00:00,4,20905509,184866
OK,89,38,719,89,2014-08-02T16:05:00,2,20905958,184866
OK,115,29,719,115,2014-08-02T16:10:00,1,20906407,184866
OK,75,45,719,75,2014-08-02T16:15:00,1,20906856,184866
OK,75,45,719,75,2014-08-02T16:20:00,1,20907305,184866
OK,84,40,719,84,2014-08-02T16:25:00,4,20907754,184866
OK,61,55,719,61,2014-08-02T16:30:00,4,20908203,184866
OK,55,61,719,55,2014-08-02T16:35:00,2,20908652,184866
OK,84,40,719,84,2014-08-02T16:40:00,1,20909101,184866
OK,60,56,719,60,2014-08-02T16:45:00,1,20909550,184866
OK,60,56,719,60,2014-08-02T16:50:00,1,20909999,184866
OK,49,69,719,49,2014-08-02T16:55:00,2,20910448,184866
OK,49,69,719,49,2014-08-02T17:00:00,0,20910897,184866
OK,49,69,719,49,2014-08-02T17:05:00,0,20911346,184866
OK,49,69,719,49,2014-08-02T17:10:00,0,20911795,184866
OK,129,26,719,129,2014-08-02T17:15:00,1,20912244,184866
OK,129,26,719,129,2014-08-02T17:20:00,1,20912693,184866
OK,73,46,719,73,2014-08-02T17:25:00,4,20913142,184866
OK,72,47,719,72,2014-08-02T17:30:00,5,20913591,184866
OK,121,28,719,121,2014-08-02T17:35:00,2,20914040,184866
OK,121,28,719,121,2014-08-02T17:40:00,0,20914489,184866
OK,121,28,719,121,2014-08-02T17:45:00,0,20914938,184866
OK,121,28,719,121,2014-08-02T17:50:00,0,20915387,184866
OK,121,28,719,121,2014-08-02T17:55:00,0,20915836,184866
OK,121,28,719,121,2014-08-02T18:00:00,0,20916285,184866
OK,79,42,719,79,2014-08-02T18:05:00,2,20916734,184866
OK,70,48,719,70,2014-08-02T18:10:00,2,20917183,184866
OK,62,54,719,62,2014-08-02T18:15:00,0,20917632,184866
OK,62,54,719,62,2014-08-02T18:20:00,0,20918081,184866
OK,55,61,719,55,2014-08-02T18:25:00,1,20918530,184866
OK,94,36,719,94,2014-08-02T18:30:00,2,20918979,184866
OK,117,28,719,117,2014-08-02T18:35:00,2,20919428,184866
OK,101,33,719,101,2014-08-02T18:40:00,1,20919877,184866
OK,101,33,719,101,2014-08-02T18:45:00,0,20920326,184866
OK,60,56,719,60,2014-08-02T18:50:00,2,20920775,184866
OK,60,56,719,60,2014-08-02T18:55:00,2,20921224,184866
OK,60,56,719,60,2014-08-02T19:00:00,1,20921673,184866
OK,59,57,719,59,2014-08-02T19:05:00,2,20922122,184866
OK,77,44,719,77,2014-08-02T19:10:00,5,20922571,184866
OK,64,52,719,64,2014-08-02T19:15:00,4,20923020,184866
OK,112,30,719,112,2014-08-02T19:20:00,1,20923469,184866
OK,60,56,719,60,2014-08-02T19:25:00,1,20923918,184866
OK,60,56,719,60,2014-08-02T19:30:00,1,20924367,184866
OK,60,56,719,60,2014-08-02T19:35:00,0,20924816,184866
OK,60,56,719,60,2014-08-02T19:40:00,0,20925265,184866
OK,60,56,719,60,2014-08-02T19:45:00,0,20925714,184866
OK,63,53,719,63,2014-08-02T19:50:00,2,20926163,184866
OK,63,53,719,63,2014-08-02T19:55:00,0,20926612,184866
OK,55,61,719,55,2014-08-02T20:00:00,1,20927061,184866
OK,59,57,719,59,2014-08-02T20:05:00,1,20927510,184866
OK,98,34,719,98,2014-08-02T20:10:00,1,20927959,184866